Weather Roundup
Issued by NWS Springfield, MO

Home | Current Version | Previous Version | Text Only | Print | Product List | Glossary On
Versions: 1 2 3 4 5 6 7 8 9 10 11 12 13 14 15 16 17 18 19 20 21 22 23 24 25 26 27 28 29 30 31 32 33 34 35 36 37 38 39 40 41 42 43 44 45 46 47 48 49 50
000
NZUS99 KSGF 290759
HRRSGF

HOURLY WEATHER
NATIONAL WEATHER SERVICE SPRINGFIELD MO
300 AM CDT FRI MAY 29 2015

......SGF CWA......

CITY           SKY/WX    TMP DP  RH WIND       PRES   REMARKS
SPRINGFIELD    MOCLDY    66  61  84 S12       29.98R
JOPLIN         CLOUDY    68  64  87 S7        29.96R
WEST PLAINS    MOCLDY    68  64  87 S8        30.02F
ROLLA          MOCLDY    67  64  90 S9        29.97F
OSAGE BEACH    CLOUDY    64  63  94 S5        29.98S

......SURROUNDING SGF CWA......

CITY           SKY/WX    TMP DP  RH WIND       PRES   REMARKS
CHANUTE        MOCLDY    68  66  93 SE8       29.91F
PARSONS        MOCLDY    69  68  96 SE3       29.93F
COFFEYVILLE    MOCLDY    69  67  93 SE9       29.91F
EMPORIA        LGT RAIN  65  63  93 CALM      29.92F
SILOAM SPRINGS CLOUDY    66  57  72 SE8       29.99F
HARRISON AR    CLOUDY    64  62  93 SE8       30.02F
NEAR YELLVILLE CLOUDY    66  63  88 CALM      30.00S

......KANSAS AND MISSOURI......

CITY           SKY/WX    TMP DP  RH WIND       PRES   REMARKS
KANSAS CTY INT MOCLDY    62  62 100 S5        29.95S
DOWNTOWN KC    PTCLDY    65  61  87 S3        29.94S
COLUMBIA       CLOUDY    66  65  96 S12       29.96F
SEDALIA        CLOUDY    66  63  90 S6        29.97F
ST JOSEPH      CLEAR     64  62  93 S3        29.95S
ST LOUIS       CLOUDY    74  64  71 S12       30.00F
SPIRIT OF STL  MOCLDY   N/A N/A N/A S6        29.98F
KIRKSVILLE     CLOUDY    64  64 100 CALM      29.97F
WICHITA        CLOUDY    66  65  96 CALM      29.90F
TOPEKA         CLOUDY    66  65  96 E5        29.93F
OLATHE         CLOUDY    63  63 100 S5        29.95R

......TENNESSEE......

CITY           SKY/WX    TMP DP  RH WIND       PRES   REMARKS
MEMPHIS        PTCLDY    71  66  84 SE8       30.01F
NASHVILLE      CLEAR     66  64  93 SE3       30.10F

......ARKANSAS.......

CITY           SKY/WX    TMP DP  RH WIND       PRES   REMARKS
FAYETTEVILLE   CLOUDY    68  62  81 S8        29.99F
FT SMITH       CLOUDY    68  65  90 NE8       29.98F
LITTLE ROCK    CLOUDY    68  65  90 CALM      30.01F

......OKLAHOMA.......

CITY           SKY/WX    TMP DP  RH WIND       PRES   REMARKS
TULSA          CLOUDY    71  69  93 S13       29.92F
PONCA CITY     MOCLDY    72  70  93 S7        29.89F
MCALESTER      LGT RAIN  67  65  93 CALM      29.96F
OKLAHOMA CITY  CLOUDY    66  61  84 NE7       29.92F

......IOWA............

CITY           SKY/WX    TMP DP  RH WIND       PRES   REMARKS
DES MOINES     MOCLDY    64  61  90 S5        29.95S
QUAD CITIES    CLOUDY    66  61  84 E5        29.99F

......ILLINOIS........

CITY           SKY/WX    TMP DP  RH WIND       PRES   REMARKS
QUINCY         CLOUDY    69  65  86 SE7       29.97F
CHICAGO        MOCLDY    66  57  72 S8        30.05R




USA.gov is the U.S. government's official web portal to all federal, state and local government web resources and services.